When you browse on this site, cookies collect data to enhance your experience and personalize the content and advertising you see.
Visit our Privacy Policy to learn more. By continuing to use the site, you agree to this use of cookies and data.
  • In France
  • List of Countries
  • For 7 days
  • Water Temperature
  • Satellite Maps
  • Weather Map
  • Weather Widgets
  • user-avatar
    Login

    Hourly Weather Albany

    Today, 25 May, Saturday

    Time Temperature Precipitation Wind Pressure Humidity
    00:00 +14°C° 0.1 mm 3 mps 764 mmHg 81%
    01:00 +14°C° 0.1 mm 3 mps 764 mmHg 83%
    02:00 +13°C° 0 mm 3 mps 764 mmHg 84%
    03:00 +14°C° 0 mm 2 mps 764 mmHg 85%
    04:00 +14°C° 0 mm 2 mps 764 mmHg 85%
    05:00 +14°C° 0 mm 2 mps 764 mmHg 85%
    06:00 +14°C° 0 mm 2 mps 764 mmHg 86%
    07:00 +14°C° 0 mm 2 mps 765 mmHg 86%
    08:00 +14°C° 0 mm 2 mps 765 mmHg 86%
    09:00 +15°C° 0 mm 2 mps 765 mmHg 81%
    10:00 +16°C° 0 mm 2 mps 765 mmHg 75%
    11:00 +17°C° 0 mm 2 mps 765 mmHg 70%
    12:00 +17°C° 0 mm 2 mps 765 mmHg 70%
    13:00 +17°C° 0 mm 2 mps 764 mmHg 70%
    14:00 +17°C° 0 mm 2 mps 764 mmHg 71%
    15:00 +16°C° 0 mm 2 mps 764 mmHg 72%
    16:00 +15°C° 0 mm 2 mps 764 mmHg 74%
    17:00 +15°C° 0 mm 2 mps 765 mmHg 76%
    18:00 +15°C° 0 mm 2 mps 765 mmHg 75%
    19:00 +15°C° 0 mm 2 mps 765 mmHg 74%
    20:00 +15°C° 0 mm 2 mps 766 mmHg 74%
    21:00 +15°C° 0 mm 2 mps 766 mmHg 73%
    22:00 +15°C° 0 mm 2 mps 766 mmHg 72%
    23:00 +15°C° 0 mm 2 mps 766 mmHg 71%

    Tomorrow, 26 May, Sunday

    Time Temperature Precipitation Wind Pressure Humidity
    00:00 +14°C° 0 mm 2 mps 766 mmHg 73%
    01:00 +13°C° 0 mm 2 mps 766 mmHg 75%
    02:00 +13°C° 0 mm 2 mps 766 mmHg 77%
    03:00 +13°C° 0 mm 2 mps 766 mmHg 78%
    04:00 +12°C° 0 mm 2 mps 766 mmHg 79%
    05:00 +12°C° 0 mm 2 mps 766 mmHg 81%
    06:00 +12°C° 0 mm 1 mps 766 mmHg 80%
    07:00 +13°C° 0 mm 1 mps 766 mmHg 79%
    08:00 +13°C° 0 mm 1 mps 766 mmHg 78%
    09:00 +14°C° 0 mm 1 mps 766 mmHg 71%
    10:00 +16°C° 0 mm 2 mps 767 mmHg 65%
    11:00 +17°C° 0 mm 2 mps 767 mmHg 58%
    12:00 +17°C° 0 mm 2 mps 766 mmHg 59%
    13:00 +17°C° 0 mm 2 mps 766 mmHg 60%
    14:00 +16°C° 0 mm 2 mps 766 mmHg 61%
    15:00 +16°C° 0 mm 2 mps 766 mmHg 65%
    16:00 +15°C° 0 mm 2 mps 766 mmHg 69%
    17:00 +14°C° 0 mm 2 mps 766 mmHg 73%
    18:00 +14°C° 0 mm 2 mps 766 mmHg 77%
    19:00 +13°C° 0 mm 1 mps 767 mmHg 81%
    20:00 +12°C° 0 mm 1 mps 767 mmHg 85%
    21:00 +12°C° 0 mm 1 mps 767 mmHg 86%
    22:00 +12°C° 0 mm 1 mps 767 mmHg 87%
    23:00 +10°C° 0 mm 0 mps 768 mmHg 88%

    Day after tomorrow, 27 May, Monday

    Time Temperature Precipitation Wind Pressure Humidity
    00:00 +10°C° 0 mm 0 mps 767 mmHg 88%
    01:00 +10°C° 0 mm 0 mps 767 mmHg 89%
    02:00 +10°C° 0 mm 0 mps 767 mmHg 90%
    03:00 +10°C° 0 mm 0 mps 767 mmHg 90%
    04:00 +10°C° 0 mm 0 mps 767 mmHg 90%
    05:00 +9°C° 0 mm 0 mps 767 mmHg 90%
    06:00 +10°C° 0 mm 0 mps 767 mmHg 89%
    07:00 +10°C° 0 mm 0 mps 768 mmHg 88%
    08:00 +11°C° 0 mm 0 mps 768 mmHg 87%
    09:00 +14°C° 0 mm 1 mps 768 mmHg 78%
    10:00 +15°C° 0 mm 1 mps 768 mmHg 70%
    11:00 +17°C° 0 mm 2 mps 768 mmHg 61%
    12:00 +18°C° 0 mm 2 mps 767 mmHg 60%
    13:00 +18°C° 0 mm 2 mps 767 mmHg 58%
    14:00 +18°C° 0 mm 2 mps 766 mmHg 57%
    15:00 +17°C° 0 mm 3 mps 766 mmHg 62%
    16:00 +16°C° 0 mm 3 mps 766 mmHg 67%
    17:00 +14°C° 0 mm 3 mps 766 mmHg 72%
    18:00 +13°C° 0 mm 3 mps 766 mmHg 76%
    19:00 +13°C° 0 mm 3 mps 767 mmHg 80%
    20:00 +12°C° 0 mm 3 mps 767 mmHg 84%
    21:00 +12°C° 0 mm 3 mps 767 mmHg 85%
    22:00 +12°C° 0 mm 2 mps 767 mmHg 86%
    23:00 +12°C° 0 mm 2 mps 767 mmHg 87%

    28 May, Tuesday

    Time Temperature Precipitation Wind Pressure Humidity
    00:00 +12°C° 0 mm 2 mps 767 mmHg 88%
    01:00 +12°C° 0 mm 2 mps 767 mmHg 88%
    02:00 +10°C° 0 mm 2 mps 766 mmHg 89%
    03:00 +10°C° 0 mm 2 mps 766 mmHg 90%
    04:00 +10°C° 0 mm 2 mps 766 mmHg 90%
    05:00 +10°C° 0 mm 2 mps 766 mmHg 90%
    06:00 +10°C° 0 mm 2 mps 766 mmHg 89%
    07:00 +10°C° 0 mm 2 mps 767 mmHg 88%
    08:00 +12°C° 0 mm 2 mps 767 mmHg 87%
    09:00 +13°C° 0 mm 3 mps 767 mmHg 79%
    10:00 +14°C° 0 mm 3 mps 767 mmHg 71%
    11:00 +17°C° 0 mm 3 mps 767 mmHg 64%
    12:00 +18°C° 0 mm 3 mps 766 mmHg 62%
    13:00 +18°C° 0 mm 4 mps 766 mmHg 60%
    14:00 +19°C° 0 mm 4 mps 765 mmHg 58%
    15:00 +18°C° 0 mm 4 mps 765 mmHg 64%
    16:00 +17°C° 0 mm 4 mps 765 mmHg 70%
    17:00 +14°C° 0 mm 4 mps 765 mmHg 76%
    18:00 +14°C° 0 mm 4 mps 766 mmHg 79%
    19:00 +13°C° 0 mm 4 mps 766 mmHg 83%
    20:00 +12°C° 0 mm 4 mps 766 mmHg 86%
    21:00 +12°C° 0 mm 4 mps 766 mmHg 87%
    22:00 +12°C° 0 mm 4 mps 766 mmHg 88%
    23:00 +12°C° 0 mm 4 mps 766 mmHg 89%

    29 May, Wednesday

    Time Temperature Precipitation Wind Pressure Humidity
    00:00 +12°C° 0 mm 4 mps 766 mmHg 89%
    01:00 +11°C° 0 mm 4 mps 766 mmHg 90%
    02:00 +11°C° 0 mm 4 mps 766 mmHg 90%
    03:00 +11°C° 0 mm 4 mps 766 mmHg 90%
    04:00 +11°C° 0 mm 4 mps 765 mmHg 91%
    05:00 +11°C° 0 mm 4 mps 765 mmHg 91%
    06:00 +11°C° 0 mm 4 mps 766 mmHg 89%
    07:00 +10°C° 0 mm 5 mps 766 mmHg 87%
    08:00 +10°C° 0 mm 5 mps 766 mmHg 85%
    09:00 +13°C° 0 mm 5 mps 766 mmHg 77%
    10:00 +15°C° 0 mm 5 mps 766 mmHg 68%
    11:00 +17°C° 0 mm 5 mps 765 mmHg 59%
    12:00 +19°C° 0 mm 5 mps 765 mmHg 56%
    13:00 +19°C° 0 mm 5 mps 764 mmHg 53%
    14:00 +20°C° 0 mm 5 mps 763 mmHg 50%
    15:00 +19°C° 0 mm 5 mps 763 mmHg 54%
    16:00 +17°C° 0 mm 5 mps 763 mmHg 59%
    17:00 +16°C° 0 mm 6 mps 764 mmHg 63%
    18:00 +15°C° 0 mm 6 mps 764 mmHg 68%
    19:00 +15°C° 0 mm 6 mps 764 mmHg 73%
    20:00 +14°C° 0 mm 7 mps 764 mmHg 78%
    21:00 +14°C° 0 mm 7 mps 763 mmHg 75%
    22:00 +14°C° 0 mm 7 mps 763 mmHg 73%
    23:00 +14°C° 0 mm 7 mps 763 mmHg 70%

    30 May, Thursday

    Time Temperature Precipitation Wind Pressure Humidity
    00:00 +14°C° 0 mm 7 mps 763 mmHg 64%
    01:00 +14°C° 0 mm 7 mps 762 mmHg 57%
    02:00 +14°C° 0 mm 7 mps 762 mmHg 51%
    03:00 +14°C° 0 mm 7 mps 762 mmHg 50%
    04:00 +15°C° 0 mm 7 mps 761 mmHg 48%
    05:00 +15°C° 0 mm 7 mps 761 mmHg 47%
    06:00 +15°C° 0 mm 7 mps 761 mmHg 47%
    07:00 +15°C° 0 mm 7 mps 761 mmHg 47%
    08:00 +15°C° 0 mm 7 mps 761 mmHg 47%
    09:00 +16°C° 0 mm 7 mps 761 mmHg 46%
    10:00 +18°C° 0 mm 7 mps 761 mmHg 45%
    11:00 +20°C° 0 mm 7 mps 761 mmHg 44%
    12:00 +18°C° 0.3 mm 7 mps 760 mmHg 51%
    13:00 +17°C° 0.3 mm 6 mps 760 mmHg 58%
    14:00 +17°C° 0.3 mm 6 mps 759 mmHg 64%
    15:00 +17°C° 0.1 mm 6 mps 759 mmHg 61%
    16:00 +17°C° 0.1 mm 6 mps 759 mmHg 57%
    17:00 +17°C° 0.1 mm 7 mps 759 mmHg 54%
    18:00 +18°C° 0 mm 7 mps 759 mmHg 52%
    19:00 +18°C° 0 mm 7 mps 759 mmHg 49%
    20:00 +18°C° 0 mm 7 mps 759 mmHg 47%
    21:00 +18°C° 0 mm 7 mps 759 mmHg 48%
    22:00 +18°C° 0 mm 7 mps 759 mmHg 49%
    23:00 +17°C° 0 mm 7 mps 759 mmHg 50%
    Show more